Home > Weather > Norfolk > Past weeks

Flag for USA Past Weather in Norfolk, Virginia, USA — Yesterday and Last 2 Weeks

Now
91 °F

Passing clouds.


Feels Like: 98 °F
Forecast: 78 / 92 °F
Wind: 7 mph from West

Location: Norfolk Naval Air Station

Current Time: Jul 27, 2016 at 1:19:58 PM

Latest Report: Jul 27, 2016 at 12:59 PM


Visibility: 10 mi

Pressure: 29.96 "Hg

Humidity: 52%

Dew Point: 71 °F

Location of NorfolkLocation

Past Weather in Norfolk — Graph

°F

Norfolk Temperature Yesterday

Maximum temperature yesterday: 94 °F (at 12:59 PM)
Minimum temperature yesterday: 80 °F (at 9:59 PM)
Average temperature yesterday: 85 °F

High & Low Weather Summary for the Past Weeks

 TemperatureHumidityPressure
High98 °F (Jul 24, 2:59 PM)97% (Jul 21, 5:59 AM)30.21 "Hg (Jul 21, 5:59 AM)
Low70 °F (Jul 20, 12:59 AM)42% (Jul 25, 4:59 PM)29.90 "Hg (Jul 15, 4:59 PM)
Average83 °F70%30.05 "Hg
* Reported Jul 12 11:59 AM — Jul 27 11:59 AM, Norfolk, Weather by CustomWeather, © 2016

Note: Actual official high and low records may vary slightly from our data, if they occured in-between our weather recording intervals... More about our weather records

Advertising

Norfolk Weather History for the Previous 24 Hours

Scroll right to see more
 ConditionsComfort  
Time TempWeatherWind HumidityBarometerVisibility
11:59 AM
Wed, Jul 27
90 °FPassing clouds.6 mph57%29.96 "Hg9 mi
10:59 AM87 °FPassing clouds.6 mph63%29.97 "Hg8 mi
9:59 AM84 °FPassing clouds.8 mph74%29.96 "Hg7 mi
8:59 AM82 °FPassing clouds.6 mph82%29.97 "Hg7 mi
7:59 AM81 °FScattered clouds.8 mph85%29.97 "Hg7 mi
6:59 AM80 °FPassing clouds.5 mph87%29.95 "Hg7 mi
5:59 AM79 °FPassing clouds.5 mph88%29.94 "Hg8 mi
4:59 AM80 °FPassing clouds.3 mph85%29.93 "Hg8 mi
3:59 AM80 °FPartly cloudy.3 mph81%29.94 "Hg9 mi
2:59 AM81 °FPassing clouds.7 mph79%29.95 "Hg9 mi
1:59 AM81 °FThunderstorms. Passing clouds.8 mph77%29.93 "Hg10 mi
12:59 AM80 °FPartly cloudy.5 mph79%29.95 "Hg10 mi
11:59 PM
Tue, Jul 26
82 °FPassing clouds.No wind74%29.96 "Hg10 mi
10:59 PM80 °FPassing clouds.5 mph76%29.96 "Hg10 mi
9:59 PM80 °FPartly cloudy.3 mph74%29.94 "Hg10 mi
8:59 PM82 °FPartly sunny.No wind74%29.95 "Hg10 mi
7:59 PM83 °FBroken clouds.3 mph72%29.93 "Hg10 mi
6:59 PM84 °FBroken clouds.10 mph70%29.94 "Hg10 mi
5:59 PM87 °FBroken clouds.6 mph72%29.93 "Hg7 mi
4:59 PM91 °FBroken clouds.9 mph61%29.92 "Hg7 mi
3:59 PM93 °FBroken clouds.13 mph56%29.93 "Hg8 mi
2:59 PM94 °FScattered clouds.7 mph52%29.95 "Hg8 mi
1:59 PM94 °FScattered clouds.7 mph56%29.96 "Hg7 mi
Weather by CustomWeather, © 2016

See weather overviewHow to use our weather pages